Volver al catálogo

STARLINK-3300

ActivoComunicacionesVLEO
NORAD 50841·PAYLOAD·🇺🇸 United States

Lanzado Jan 6, 2022 desde Cape Canaveral Space Force Station

Loading…

Próximos Pases (próximas 24 horas)

TLE

ActualizadoSource: CelesTrak SupGP

Época: Sep 15, 2026, 01:33 UTC

1 50841C 22001AQ  26258.06506944 -.00034361  00000+0 -10428-2 0  2583
2 50841  53.1587  35.2005 0001189  85.2742 154.0225 15.33561222    11

Sigue STARLINK-3300 en tiempo real con AllMySat

Download on the App Store